Location: Noyers
(47.2770°N, 1.4032°E)
Time: 03:36:16
(UTC+00:00)

Aureole 1 Rocket - Pass Details

Date: 15 May 2026
Orbit: 372 x 1149 km, 73.9° (Epoch: 8 June)

Event Time Altitude Azimuth Distance (km) Brightness Sun altitude
Rises 22:14:45 0° 337° (NNW) 3,328 8.4 -20.3°
Reaches altitude 10° 22:16:58 10° 338° (NNW) 2,501 7.4 -20.4°
Maximum altitude 22:22:52 86° 67° (ENE) 994 4.0 -20.8°
Enters shadow 22:25:46 38° 155° (SSE) 1,542 4.5 -21.0°
